Regional Weather Roundup
Issued by NWS

Home | Current Version | Previous Version | Graphics & Text | Print | Product List | Glossary On
Versions: 1 2 3 4 5 6 7 8 9 10 11 12 13 14 15 16 17 18 19 20 21 22 23 24 25 26 27 28 29 30 31 32 33 34 35 36 37 38 39 40 41 42 43 44 45 46 47 48 49 50
482
ASUS45 KSLC 261310
RWRUT

UTAH REGIONAL WEATHER ROUNDUP
NATIONAL WEATHER SERVICE SALT LAKE CITY UT
700 AM MDT WED APR 26 2017

UTZ001>011-023>025-261400-

NORTHERN UTAH

CITY           SKY/WX    TMP DP  RH WIND       PRES   REMARKS
BRIGHAM CITY   CLOUDY    48  34  58 SW7       29.90R
DUGWAY         MOCLDY    32  30  92 S3        29.91
HILL AFB       CLOUDY    44  32  63 S12       29.90R
LOGAN          CLOUDY    42  38  85 E3        29.89R
OGDEN          CLOUDY    44  34  67 CALM      29.90R
SALT LAKE CITY MOCLDY    44  37  76 SE8       29.91R
TOOELE VALLEY  CLOUDY    41  34  75 S8        29.92R
WENDOVER       CLOUDY    49  29  46 NW9       29.89S
HEBER CITY     CLEAR     28  28 100 CALM      29.92R
WEST JORDAN    CLOUDY    44  40  85 S5        29.93R

$$

UTZ011>015-024>027-261400-

CENTRAL/NORTHEAST UTAH

CITY           SKY/WX    TMP DP  RH WIND       PRES   REMARKS
PROVO AIRPORT  MOCLDY    35  31  85 E3        29.95R
MOAB/CANYONLAN CLEAR     36  30  79 W3        29.90S
DELTA          PTCLDY    32  32 100 NE3       29.93R
PRICE          CLEAR     31  24  75 N3        29.91R
RICHFIELD      CLEAR     28  28 100 CALM      29.96S
ROOSEVELT      CLOUDY    34  28  80 CALM      29.92R
VERNAL         CLOUDY    37  32  82 CALM      29.90R

$$

UTZ013>016-019>022-027-261400-

SOUTHERN UTAH

CITY           SKY/WX    TMP DP  RH WIND       PRES   REMARKS
BRYCE CANYON   CLEAR     21  15  78 W5        29.98S WCI  15
CEDAR CITY     CLEAR     27  21  78 N5        29.94R WCI  22
MILFORD        CLEAR     31  24  75 S10       29.92F WCI  22
ST GEORGE      SUNNY     45  22  40 E6        29.94R
HANKSVILLE     MOCLDY    32  21  64 CALM      29.94S
KANAB          CLEAR     30  21  69 N3        30.00S
BLANDING       CLEAR     35  22  58 E3        30.00R

$$

REGIONAL REPORTS     COLORADO/ARIZONA

CITY           SKY/WX    TMP DP  RH WIND       PRES   REMARKS
CRAIG, CO      FLURRIES  33  28  81 NE3       29.91S
GRAND JUNCTION CLOUDY    38  37  97 E5        29.92R WCI  34
RIFLE, CO      CLOUDY    36  33  89 W5        29.93R WCI  32
MONTROSE, CO   CLOUDY    36  31  82 CALM      29.95R
CORTEZ, CO     CLEAR     26  23  88 E8        29.93R WCI  18
COLORADO CITY    N/A     28  21  74 SE5       29.98R WCI  23
PAGE, AZ       CLEAR     43  22  43 SE3       29.92S
GRAND CANYON   PTCLDY    20  13  74 CALM      30.00R
KINGMAN, AZ    PTCLDY    39  21  48 CALM      29.92S
FLAGSTAFF, AZ  MOCLDY    25  15  66 CALM      29.99R

$$

REGIONAL REPORTS    NEVADA/IDAHO/WYOMING

CITY           SKY/WX    TMP DP  RH WIND       PRES   REMARKS
LAS VEGAS, NV  MOCLDY    60  16  18 S6        29.86F
ELY, NY        CLOUDY    33  25  72 S7        29.96S WCI  27
ELKO, NV       CLOUDY    45  31  58 S6        29.92F
POCATELLO, ID  CLOUDY    43  32  65 SW12      29.86F
BURLEY, ID     CLOUDY    43  36  76 SW14      29.87S
FORT BRIDGER,  PTSUNNY   33  28  82 SW13      29.91R WCI  24
EVANSTON, WY   CLOUDY    30  28  92 SW9       29.90R WCI  22
ROCK SPRINGS,  CLOUDY    33  29  85 SW13      29.88R WCI  24
KEMMERER, WY     N/A     30  30 100 CALM      29.89R

$$




USA.gov is the U.S. government's official web portal to all federal, state and local government web resources and services.